Weather History for Pineville, WV

Change the Weather History Date:

Monday, November 21, 2011

  Actual Average (KBKW) Record (KBKW)
Temperature  
Mean Temperature 58 °F 42 °F  
Max Temperature 62 °F 51 °F 75 °F (1906)
Min Temperature 55 °F 33 °F 8 °F (1951)
Degree Days  
Heating Degree Days 6 23  
Month to date heating degree days 409  
Since 1 July heating degree days 915  
Cooling Degree Days 0 0  
Month to date cooling degree days 0  
Year to date cooling degree days 556  
Growing Degree Days 8 (Base 50)    
Moisture  
Dew Point 57 °F    
Average Humidity 100    
Maximum Humidity 100    
Minimum Humidity 94    
Precipitation  
Precipitation 0.00 in 0.10 in 0.79 in (1991)
Month to date precipitation 2.05  
Year to date precipitation 37.29  
Snow  
Snow 0.00 in - - ()
Month to date snowfall  
Since 1 September snowfall  
Snow Depth -    
Sea Level Pressure  
Sea Level Pressure 30.26 in    
Wind  
Wind Speed 0 mph (North)    
Max Wind Speed 0 mph    
Max Gust Speed -    
Visibility 4 miles    
Events Rain    
T = Trace of Precipitation, MM = Missing Value Source: NWS Daily Summary

Daily Weather History Graph

Daily Weather History Graph

Search for Another Location

Airport:

Trip Planner

Search our weather history database for the weather conditions in past years. The results will help you decide how hot, cold, wet, or windy it might be!

Date:

Astronomy

Nov. 21, 2011 Rise Set
Actual Time 7:12 AM EST 5:11 PM EST
Civil Twilight 6:43 AM EST 5:39 PM EST
Nautical Twilight 6:11 AM EST 6:11 PM EST
Astronomical Twilight 5:40 AM EST 6:43 PM EST
Moon 2:52 AM EST (11/21) 2:30 PM EST (11/21)
Length of Visible Light 10h 56m
Length of Day
9h 59m
Waning Crescent, 18% of the Moon is Illuminated
Nov 21
Waning Crescent
Nov 25
New
Dec 2
First Quarter
Dec 10
Full
Dec 17
Last Quarter

Hourly Weather History & Observations

Time (EST) Temp. Dew Point Humidity Pressure Visibility Wind Dir Wind Speed Gust Speed Precip Events Conditions
12:15 AM 55.4 °F 55.4 °F 100% 30.24 in 1.2 mi Calm Calm - N/A   Overcast
12:35 AM 55.4 °F 55.4 °F 100% 30.24 in 1.0 mi Calm Calm - N/A Rain Heavy Rain
12:55 AM 55.4 °F 55.4 °F 100% 30.24 in 1.8 mi Calm Calm - N/A Rain Rain
1:15 AM 55.4 °F 55.4 °F 100% 30.23 in 2.0 mi Calm Calm - N/A   Light Drizzle
1:35 AM 55.4 °F 55.4 °F 100% 30.24 in 1.5 mi Calm Calm - N/A   Overcast
1:55 AM 55.4 °F 55.4 °F 100% 30.23 in 1.2 mi Calm Calm - N/A   Heavy Drizzle
2:15 AM 55.4 °F 55.4 °F 100% 30.23 in 1.5 mi Calm Calm - N/A   Drizzle
2:35 AM 55.4 °F 55.4 °F 100% 30.23 in 1.5 mi Calm Calm - N/A   Overcast
2:55 AM 55.4 °F 55.4 °F 100% 30.24 in 1.8 mi Calm Calm - N/A   Overcast
3:15 AM 55.4 °F 55.4 °F 100% 30.25 in 1.2 mi Calm Calm - N/A   Overcast
3:35 AM 55.4 °F 55.4 °F 100% 30.24 in 1.5 mi Calm Calm - N/A   Overcast
3:55 AM 55.4 °F 55.4 °F 100% 30.25 in 1.5 mi Calm Calm - N/A   Overcast
4:15 AM 55.4 °F 55.4 °F 100% 30.24 in 1.8 mi Calm Calm - N/A   Overcast
4:35 AM 55.4 °F 55.4 °F 100% 30.25 in 1.5 mi Calm Calm - N/A Rain Rain
4:55 AM 55.4 °F 55.4 °F 100% 30.25 in 3.0 mi Calm Calm - N/A   Light Drizzle
5:15 AM 55.4 °F 55.4 °F 100% 30.25 in 3.0 mi Calm Calm - N/A   Overcast
5:35 AM 55.4 °F 55.4 °F 100% 30.26 in 4.0 mi Calm Calm - N/A   Overcast
5:55 AM 55.4 °F 55.4 °F 100% 30.26 in 2.5 mi Calm Calm - N/A   Overcast
6:35 AM 55.4 °F 55.4 °F 100% 30.29 in 1.8 mi Calm Calm - N/A   Overcast
6:55 AM 55.4 °F 55.4 °F 100% 30.29 in 2.5 mi Calm Calm - N/A Rain Light Rain
7:15 AM 55.4 °F 55.4 °F 100% 30.29 in 1.2 mi Calm Calm - N/A   Drizzle
7:35 AM 55.4 °F 55.4 °F 100% 30.30 in 1.5 mi Calm Calm - N/A   Overcast
7:55 AM 55.4 °F 55.4 °F 100% 30.30 in 0.8 mi Calm Calm - N/A   Overcast
8:15 AM 55.4 °F 55.4 °F 100% 30.30 in 1.0 mi Calm Calm - N/A   Overcast
8:35 AM 55.4 °F 55.4 °F 100% 30.30 in 1.0 mi Calm Calm - N/A   Overcast
8:55 AM 57.2 °F 57.2 °F 100% 30.28 in 1.8 mi Calm Calm - N/A   Overcast
9:15 AM 59.0 °F 59.0 °F 100% 30.29 in 7.0 mi Calm Calm - N/A   Overcast
9:35 AM 59.0 °F 59.0 °F 100% 30.30 in 7.0 mi Calm Calm - N/A   Overcast
9:55 AM 59.0 °F 59.0 °F 100% 30.31 in 5.0 mi Calm Calm - N/A   Overcast
10:15 AM 59.0 °F 59.0 °F 100% 30.30 in 3.0 mi Calm Calm - N/A Rain Light Rain
10:35 AM 59.0 °F 59.0 °F 100% 30.30 in 7.0 mi Calm Calm - N/A   Overcast
10:55 AM 59.0 °F 59.0 °F 100% 30.30 in 5.0 mi Calm Calm - N/A Rain Light Rain
11:15 AM 59.0 °F 59.0 °F 100% 30.30 in 7.0 mi Calm Calm - N/A   Overcast
11:35 AM 60.8 °F 60.8 °F 100% 30.29 in 10.0 mi Calm Calm - N/A   Mostly Cloudy
11:55 AM 60.8 °F 60.8 °F 100% 30.29 in 10.0 mi Calm Calm - N/A   Mostly Cloudy
12:15 PM 60.8 °F 60.8 °F 100% 30.28 in 10.0 mi Calm Calm - N/A   Mostly Cloudy
12:35 PM 60.8 °F 60.8 °F 100% 30.27 in 10.0 mi Calm Calm - N/A   Mostly Cloudy
12:55 PM 60.8 °F 60.8 °F 100% 30.25 in 10.0 mi Calm Calm - N/A   Overcast
1:15 PM 60.8 °F 60.8 °F 100% 30.26 in 10.0 mi Calm Calm - N/A   Mostly Cloudy
1:35 PM 60.8 °F 60.8 °F 100% 30.26 in 10.0 mi Calm Calm - N/A   Overcast
1:55 PM 62.6 °F 60.8 °F 94% 30.26 in 10.0 mi Calm Calm - N/A   Overcast
2:15 PM 62.6 °F 60.8 °F 94% 30.26 in 10.0 mi Calm Calm - N/A   Overcast
2:35 PM 62.6 °F 60.8 °F 94% 30.25 in 10.0 mi Calm Calm - N/A   Overcast
3:15 PM 60.8 °F 60.8 °F 100% 30.25 in 10.0 mi Calm Calm - N/A   Overcast
3:35 PM 62.6 °F 60.8 °F 94% 30.25 in 10.0 mi Calm Calm - N/A   Overcast
3:55 PM 60.8 °F 60.8 °F 100% 30.25 in 10.0 mi Calm Calm - N/A Rain Light Rain
4:15 PM 60.8 °F 60.8 °F 100% 30.25 in 5.0 mi Calm Calm - N/A Rain Rain
4:35 PM 60.8 °F 60.8 °F 100% 30.25 in 4.0 mi Calm Calm - N/A   Light Drizzle
4:55 PM 59.0 °F 59.0 °F 100% 30.24 in 2.5 mi Calm Calm - N/A Rain Rain
5:15 PM 59.0 °F 59.0 °F 100% 30.25 in 2.5 mi Calm Calm - N/A   Mostly Cloudy
5:55 PM 55.4 °F 55.4 °F 100% 30.25 in 0.8 mi Calm Calm - N/A   Overcast
6:15 PM 55.4 °F 55.4 °F 100% 30.24 in 0.8 mi Calm Calm - N/A   Overcast
6:35 PM 55.4 °F 55.4 °F 100% 30.25 in 2.5 mi Calm Calm - N/A   Mostly Cloudy
6:55 PM 55.4 °F 55.4 °F 100% 30.25 in 1.2 mi Calm Calm - N/A   Overcast
7:15 PM 55.4 °F 55.4 °F 100% 30.25 in 1.8 mi Calm Calm - N/A   Overcast
7:35 PM 55.4 °F 55.4 °F 100% 30.25 in 1.2 mi Calm Calm - N/A   Overcast
7:55 PM 55.4 °F 55.4 °F 100% 30.24 in 3.0 mi Calm Calm - N/A   Overcast
8:15 PM 53.6 °F 53.6 °F 100% 30.23 in 2.0 mi Calm Calm - N/A   Mostly Cloudy
8:35 PM 53.6 °F 53.6 °F 100% 30.23 in 0.8 mi Calm Calm - N/A   Mostly Cloudy
8:55 PM 51.8 °F 51.8 °F 100% 30.22 in 0.8 mi Calm Calm - N/A   Mostly Cloudy
9:15 PM 51.8 °F 51.8 °F 100% 30.22 in 0.8 mi Calm Calm - N/A   Mostly Cloudy
9:35 PM 51.8 °F 51.8 °F 100% 30.22 in 1.0 mi Calm Calm - N/A   Mostly Cloudy
9:55 PM 50.0 °F 50.0 °F 100% 30.23 in 0.5 mi Calm Calm - N/A Fog Fog
10:15 PM 50.0 °F 50.0 °F 100% 30.23 in 0.5 mi Calm Calm - N/A Fog Fog
10:35 PM 50.0 °F 50.0 °F 100% 30.22 in 0.8 mi Calm Calm - N/A   Overcast
10:55 PM 50.0 °F 50.0 °F 100% 30.23 in 0.8 mi Calm Calm - N/A   Overcast
11:15 PM 50.0 °F 50.0 °F 100% 30.24 in 1.2 mi Calm Calm - N/A   Overcast
11:35 PM 50.0 °F 50.0 °F 100% 30.23 in 1.0 mi Calm Calm - N/A   Overcast
11:55 PM 50.0 °F 50.0 °F 100% 30.23 in 1.2 mi Calm Calm - N/A   Overcast